Miscellaneous Local Product
Issued by NWS Hastings, NE

Home | Current Version | Previous Version | Graphics & Text | Print | Product List | Glossary On
Versions: 1 2 3 4 5 6 7 8 9 10 11 12 13 14 15 16 17 18 19 20 21 22 23 24 25 26 27 28 29 30 31 32 33 34 35 36 37 38 39 40 41 42 43 44 45 46 47 48 49 50
000
AXUS43 KGID 022202
MISGRI

GID CWA HOURLY WEATHER ROUNDUP
NATIONAL WEATHER SERVICE HASTINGS NE
500 PM CDT MON MAY 02 2016

NOTE: "FAIR" INDICATES FEW OR NO CLOUDS BELOW 12,000 FEET WITH NO
SIGNIFICANT WEATHER AND/OR OBSTRUCTIONS TO VISIBILITY.

...SOUTH CENTRAL NEBRASKA...

CITY           SKY/WX    TMP DP  RH WIND       PRES   REMARKS
GRAND ISLAND   CLOUDY    59  35  40 CALM      30.08F
HASTINGS       MOSUNNY   58  38  47 NW3       30.07F
KEARNEY        CLOUDY    57  34  41 SE5       30.08F
ORD            CLOUDY    58  36  43 VRB5      30.05F
YORK           CLOUDY    59  37  44 NW5       30.08F
AURORA         CLOUDY    60  37  43 W6        30.08S
LEXINGTON      CLOUDY    60  37  42 CALM      30.06F
HOLDREGE       CLOUDY    59  34  39 CALM      30.08F
HEBRON         PTSUNNY   61  36  39 CALM      30.08F

...NEBRASKA PANHANDLE...

CITY           SKY/WX    TMP DP  RH WIND       PRES   REMARKS
CHADRON        CLOUDY    63  36  36 E16       30.02F
ALLIANCE       MOSUNNY   62  31  31 N14       30.03F
SCOTTSBLUFF    PTSUNNY   64  33  31 W16       30.04F
SIDNEY         SUNNY     59  24  26 NW13G20   30.10F

...WESTERN AND NORTH CENTRAL NEBRASKA...

CITY           SKY/WX    TMP DP  RH WIND       PRES   REMARKS
VALENTINE      CLOUDY    61  29  29 NW8       30.02F
AINSWORTH      LGT RAIN  55  40  58 SW8G16    30.05S
ONEILL         CLOUDY    61  31  32 CALM      30.05F
BROKEN BOW     CLOUDY    59  33  37 S3        30.05F
IMPERIAL       CLOUDY    61  31  32 NW13      30.08F
NORTH PLATTE   CLOUDY    59  33  37 NW12      30.06F
MCCOOK         PTSUNNY   61  35  37 NW6       30.06F

...EASTERN NEBRASKA...

CITY           SKY/WX    TMP DP  RH WIND       PRES   REMARKS
NORFOLK        CLOUDY    61  37  41 W5        30.04F
SO SIOUX CITY  SUNNY     65  37  35 CALM      30.04F
TEKAMAH        SUNNY     63  37  38 CALM      30.05F
COLUMBUS       CLOUDY    61  34  36 NW3       30.07F
ALBION         PTSUNNY   60  35  39 NW5       30.06F
OMAHA EPPLEY   PTSUNNY   64  38  38 NW5       30.05F
MILLARD        CLOUDY    63  39  41 CALM      30.06F
LINCOLN        PTSUNNY   65  35  33 NE6       30.07F
NEBRASKA CITY  MOSUNNY   62  36  37 NE3       30.07F
BEATRICE       CLOUDY    60  39  45 NE3       30.06F
FALLS CITY     SUNNY     62  40  44 CALM      30.06F

...NORTHERN KANSAS...

CITY           SKY/WX    TMP DP  RH WIND       PRES   REMARKS
GOODLAND       SUNNY     62  29  28 NW13      30.09F
HILL CITY      SUNNY     66  32  28 NW10      30.07F
NORTON         PTCLDY    63  30  29 NW9       30.06
PHILLIPSBURG   MOSUNNY   64  36  34 CALM      30.07F
SMITH CENTER   SUNNY     61  41  48 NW7       30.08F
BELOIT         MOSUNNY   63  34  34 NW6       30.07F
HAYS           MOSUNNY   63  36  36 NW7       30.07F
RUSSELL        MOSUNNY   64  39  39 NW8       30.06F
CONCORDIA      MOSUNNY   61  36  39 W6        30.07F
SALINA         MOSUNNY   65  38  36 NW8       30.08F
TOPEKA         CLOUDY    58  43  57 N7        30.07F



USA.gov is the U.S. government's official web portal to all federal, state and local government web resources and services.